254  
ASUS41 KRLX 211710  
RWRRLX  
WEST VIRGINIA REGIONAL WEATHER ROUNDUP  
NATIONAL WEATHER SERVICE CHARLESTON WV  
ISSUED BY NATIONAL WEATHER SERVICE PITTSBURGH PA  
100 PM EDT SAT OCT 21 2017  
 
NOTE: "FAIR" INDICATES FEW OR NO CLOUDS BELOW 12,000 FEET WITH NO  
SIGNIFICANT WEATHER AND/OR S TO VISIBILITY
.  
 
WVZ003-211800-  
NORTHERN PANHANDLE OF WEST VIRGINIA  
 
CITY SKY/WX TMP DP RH WIND PRES REMARKS
 
WHEELING MOSUNNY 71 48 43 SW14 30.28F  

 
 
WVZ009-211800-  
NORTHWEST WEST VIRGINIA  
 
CITY SKY/WX TMP DP RH WIND PRES REMARKS
 
PARKERSBURG CLOUDY 68 50 52 S5 30.31F  

 
 
WVZ006-211800-  
WESTERN WEST VIRGINIA  
 
CITY SKY/WX TMP DP RH WIND PRES REMARKS
 
HUNTINGTON MOSUNNY 74 54 49 SW5 30.28F  

 
 
WVZ015-211800-  
WEST CENTRAL WEST VIRGINIA  
 
CITY SKY/WX TMP DP RH WIND PRES REMARKS
 
CHARLESTON MOSUNNY 74 50 42 W3 30.29F  

 
 
WVZ031-211800-  
NORTH CENTRAL WEST VIRGINIA  
 
CITY SKY/WX TMP DP RH WIND PRES REMARKS
 
CLARKSBURG SUNNY 76 50 40 SW10 30.29F  
MORGANTOWN SUNNY 75 49 39 S9 30.30F  

 
 
WVZ035-042-211800-  
SOUTH CENTRAL WEST VIRGINIA  
 
CITY SKY/WX TMP DP RH WIND PRES REMARKS
 
BECKLEY SUNNY 72 39 30 VRB6 30.35F  
BLUEFIELD SUNNY 68 42 38 CALM 30.37F  

 
 
WVZ045-211800-  
GREENBRIER VALLEY OF WEST VIRGINIA  
 
CITY SKY/WX TMP DP RH WIND PRES REMARKS
 
LEWISBURG SUNNY 70 51 51 CALM 30.37F  

 
 
WVZ047-211800-  
NORTHERN MOUNTAINS OF WEST VIRGINIA  
 
CITY SKY/WX TMP DP RH WIND PRES REMARKS
 
ELKINS SUNNY 72 49 44 CALM 30.33F  

 
 
WVZ052-211800-  
EASTERN PANHANDLE OF WEST VIRGINIA  
 
CITY SKY/WX TMP DP RH WIND PRES REMARKS
 
MARTINSBURG SUNNY 69 47 45 E3 30.34F  
PETERSBURG SUNNY 69 49 49 CALM 30.32F  

 
 
 
CLICK HERE TO GO TO PREVIOUS BULLETINS.

The Nexlab WV Page
The Nexlab OH Page
The Nexlab KY Page
The Nexlab VA Page Main Text Page